Wind_Speed
49 48 47 47 46 45 44 43 42 42 43 44 44 43 40 38 38 41 40 39 39 39 39 38 37 35 33 34 36 35 31 28 27 32 42 48 49 45 38 35 35 34 31 30 26 17 16 26 32 29 27 25 18 16 18 17 18 23 27 33 39 42 42 41 39 37 34 29 24 20 20 27 35 38 38 36 34 34 36 33 29 30 36 40 39 37 35
49 48 47 47 46 46 45 44 43 43 43 44 44 43 41 37 37 41 42 41 41 42 40 38 37 35 35 36 37 36 34 31 29 33 42 47 50 50 41 36 38 36 30 30 26 16 15 26 32 31 29 26 17 11 12 13 16 21 25 29 36 43 44 42 41 39 35 31 28 26 26 32 39 41 39 36 35 37 39 37 32 30 34 39 39 36 33
49 48 47 47 47 46 45 44 44 43 43 44 44 44 42 38 36 41 44 43 43 42 39 38 37 36 37 38 39 39 37 33 31 35 42 46 50 51 44 39 40 34 28 32 31 21 19 26 33 30 27 28 25 18 14 14 15 17 19 23 31 41 46 43 43 44 40 36 35 33 31 33 37 40 39 37 36 38 41 40 35 31 31 37 39 34 28
48 47 47 47 47 46 45 45 44 43 43 44 44 44 42 39 37 40 44 44 42 40 37 37 38 38 39 39 39 40 38 34 33 36 41 46 50 52 47 43 39 34 32 35 31 24 23 26 35 35 28 29 29 25 25 24 19 15 14 18 27 38 46 44 43 45 43 36 32 29 29 31 34 35 35 36 38 39 40 41 37 31 29 33 36 31 26
48 47 47 46 46 46 45 45 45 44 43 44 44 44 42 41 39 40 42 43 42 39 37 37 38 38 39 39 38 39 37 35 35 36 41 46 49 51 50 48 41 36 39 39 31 27 27 27 35 39 32 31 30 27 34 36 28 22 18 17 24 38 46 45 43 43 40 33 28 25 25 27 29 29 28 29 33 37 40 40 37 32 30 33 36 33 27
48 47 47 46 46 46 45 45 45 45 44 44 45 45 43 41 40 39 39 41 42 41 38 38 39 38 39 38 37 38 37 37 37 37 41 45 48 52 54 51 44 39 41 42 34 30 29 30 37 40 37 37 34 27 32 42 40 34 26 20 22 35 46 46 43 40 37 32 31 29 26 25 24 24 25 24 27 34 40 38 35 33 32 31 33 32 24
48 47 47 46 46 46 46 46 46 46 46 45 46 46 44 41 40 39 39 40 42 42 38 37 39 38 38 38 36 36 38 39 39 40 42 45 49 54 57 51 45 43 43 43 40 35 32 32 38 41 39 40 39 29 29 40 43 40 35 26 23 30 42 47 43 37 34 33 33 33 30 29 27 23 22 23 25 30 35 34 32 32 32 28 28 30 27
49 48 48 47 47 47 47 47 47 47 47 47 47 46 44 42 40 39 40 40 42 43 40 38 38 37 37 38 37 37 38 39 41 42 44 46 48 53 56 51 47 47 46 45 45 41 35 33 39 43 40 39 39 33 31 39 42 39 38 33 26 27 36 45 45 39 34 33 34 35 33 31 31 27 25 26 27 28 29 30 29 29 29 25 26 31 33
50 49 48 48 48 48 48 48 48 48 48 48 48 46 44 42 40 39 40 40 41 43 42 40 39 38 37 38 39 38 37 38 43 45 45 47 48 50 55 53 49 49 47 47 49 46 39 36 40 44 40 37 39 35 32 38 43 42 41 39 34 31 33 40 46 43 38 35 35 37 37 34 31 29 29 30 31 33 32 29 28 28 26 24 27 31 31
50 49 49 49 49 49 49 49 48 48 48 48 48 47 43 41 40 39 40 40 41 42 42 41 40 40 39 40 40 38 37 39 44 46 47 48 49 50 55 55 53 52 48 47 49 46 44 42 42 45 42 38 40 38 31 36 43 42 43 44 42 40 36 38 44 45 41 39 37 36 38 37 31 28 32 35 35 35 36 34 34 35 33 31 32 32 31
49 49 49 49 49 49 49 49 48 47 47 46 47 46 42 39 39 39 39 40 41 42 42 41 41 41 41 41 40 39 39 41 45 47 47 48 50 53 57 58 58 57 52 49 48 46 47 47 44 46 46 42 44 41 33 34 42 43 46 49 48 45 40 38 43 45 42 42 41 37 37 39 34 28 32 39 39 36 36 37 38 39 40 40 38 36 37
48 48 49 49 49 49 48 48 47 45 44 43 44 44 41 38 38 39 39 39 41 42 42 41 42 42 42 43 42 41 41 42 44 46 47 48 51 55 59 61 63 62 58 53 49 47 48 50 47 47 49 48 47 43 35 32 37 43 49 54 51 47 43 39 41 43 43 44 44 41 40 43 39 32 30 36 40 40 39 39 40 39 40 41 38 37 39
45 46 47 47 47 47 46 46 45 43 41 40 40 41 40 37 37 38 38 39 40 42 42 41 43 43 42 44 43 42 43 43 43 46 48 48 51 54 58 60 62 63 61 57 54 49 47 50 50 49 50 52 51 45 37 31 34 41 48 51 48 46 45 44 42 43 45 45 45 45 44 44 41 35 31 32 36 38 38 38 39 39 37 36 33 32 32
43 43 44 44 43 43 42 42 41 40 39 38 38 39 38 37 36 37 38 39 39 41 42 42 43 43 43 44 44 43 44 42 42 46 48 47 49 53 55 58 58 58 58 59 60 56 51 51 53 50 49 52 53 48 40 34 35 41 44 43 40 41 46 49 47 46 47 47 47 47 45 44 42 38 34 33 36 37 36 37 38 37 37 37 36 34 32
41 41 40 40 39 39 38 38 38 37 37 36 37 38 37 37 36 37 37 39 39 41 42 42 43 43 44 45 45 44 43 41 41 46 46 44 47 52 53 55 55 54 54 58 63 63 58 55 55 51 47 49 53 51 44 37 36 42 46 44 39 38 44 48 48 47 48 49 49 49 48 46 46 44 40 37 37 38 38 38 38 37 36 36 37 37 36
40 39 37 36 36 35 35 36 36 35 35 36 36 37 37 37 37 37 37 39 39 40 42 42 42 43 44 45 45 44 43 42 43 46 45 42 44 51 53 52 52 52 51 54 63 66 63 59 57 52 47 47 51 52 48 43 38 38 44 49 46 40 42 46 47 47 49 49 47 49 51 51 51 50 48 44 42 42 39 37 37 37 36 35 35 34 36
39 37 36 34 33 33 33 33 34 34 34 35 36 37 37 37 37 37 37 39 39 39 41 42 42 43 45 46 46 46 44 44 46 47 46 43 42 48 54 52 51 52 50 50 58 66 64 59 57 55 50 48 50 51 50 48 44 38 39 45 47 41 38 41 45 46 47 48 47 47 50 53 55 54 51 49 48 46 42 38 37 38 37 37 35 31 33
37 36 35 33 31 31 31 32 33 33 34 35 36 38 37 37 37 37 37 38 38 38 40 42 41 42 44 46 47 47 45 45 46 47 48 48 43 44 49 52 53 54 51 48 54 62 64 59 55 55 54 51 50 51 51 51 50 46 41 41 42 40 37 38 43 47 48 48 48 49 51 54 57 58 55 52 51 50 47 45 45 42 39 39 39 37 35
35 35 34 32 30 30 30 31 32 32 33 34 36 37 37 37 37 37 37 38 37 37 39 41 41 41 44 46 47 48 47 46 46 46 48 50 48 44 42 46 52 53 50 49 53 58 62 61 56 53 54 53 52 52 53 52 50 47 44 42 42 43 43 42 44 49 53 51 49 51 54 55 58 61 60 56 53 52 51 50 49 46 42 41 42 43 42
33 33 32 31 30 29 29 30 31 32 32 33 34 36 37 37 36 37 37 37 36 35 38 41 41 40 42 46 48 49 49 47 46 47 48 49 51 46 40 40 45 48 48 50 54 57 59 59 57 54 52 52 52 52 53 53 51 45 41 40 42 44 47 49 49 50 53 53 49 50 54 57 60 62 61 58 54 52 51 50 49 48 47 47 47 48 49
31 30 30 29 29 29 29 30 31 31 32 32 33 35 35 35 36 36 36 37 36 35 37 40 40 39 41 45 48 49 49 47 47 48 48 48 48 46 42 39 38 40 42 43 46 51 53 53 54 55 53 53 53 52 51 52 52 48 42 40 42 43 45 50 52 52 52 53 52 52 55 59 62 61 58 57 55 53 52 50 50 51 51 51 51 52 52
28 28 28 28 28 29 29 30 30 30 31 31 31 33 34 34 35 35 35 36 35 35 37 39 39 38 40 44 47 49 50 48 47 47 47 47 47 45 44 42 37 34 33 32 32 37 40 38 40 44 45 47 50 50 49 49 50 49 45 42 44 45 45 47 49 50 50 51 54 57 58 59 59 57 54 54 54 54 53 50 49 49 50 50 50 50 49
26 27 27 27 28 28 29 29 29 29 30 30 30 31 32 33 34 34 34 35 35 35 37 39 38 38 40 43 45 48 49 48 48 47 46 45 47 46 45 46 43 36 31 28 28 30 31 29 31 33 34 37 42 46 47 47 49 50 47 42 43 47 48 47 48 50 48 46 46 50 53 55 54 51 48 47 47 49 50 49 49 50 51 52 50 47 43
25 26 26 26 27 27 27 28 28 28 29 29 29 30 31 31 32 32 33 34 34 35 37 38 37 37 39 41 43 45 47 47 46 47 44 43 47 49 47 45 45 40 34 31 31 29 29 30 31 31 31 34 37 41 44 45 45 49 49 44 42 45 48 49 50 52 52 48 43 41 42 46 47 44 41 41 42 43 45 46 48 49 49 48 47 44 42
24 25 25 25 26 26 26 27 27 27 28 28 28 28 29 30 30 31 32 32 33 35 36 36 36 36 36 38 40 42 44 44 44 44 43 41 46 52 50 45 43 39 34 34 33 30 29 31 32 31 32 34 34 37 41 43 43 44 46 45 43 42 43 45 48 50 51 51 48 43 40 40 40 38 38 38 38 39 40 40 42 43 42 42 45 46 46
24 24 24 24 24 25 25 26 26 26 27 27 27 28 28 29 29 30 31 31 32 34 35 34 34 35 35 36 37 39 41 41 40 41 41 40 45 53 53 47 42 38 35 35 35 31 30 31 31 31 33 34 34 34 34 36 39 41 41 44 46 44 40 41 45 46 46 49 50 47 43 42 40 38 38 37 36 36 37 37 37 38 39 41 44 46 45
23 23 23 23 23 24 24 25 25 25 26 26 27 28 27 27 28 30 30 30 31 34 35 33 33 33 34 34 35 36 37 37 37 39 40 39 43 52 55 50 44 40 37 37 36 34 32 31 31 31 31 32 33 33 32 32 35 37 38 41 45 43 40 39 39 38 38 40 41 40 40 40 38 36 36 36 34 33 34 35 36 38 39 40 41 42 42
22 22 22 22 23 23 24 24 24 24 25 26 27 27 27 27 28 29 28 29 31 34 34 33 32 32 32 32 33 34 35 34 34 37 39 38 40 48 54 52 46 42 40 39 37 35 33 32 33 33 32 31 31 31 31 31 31 33 35 37 38 38 37 37 36 34 34 33 32 31 30 30 29 29 30 31 31 30 30 32 34 36 38 40 41 42 44
21 21 21 22 22 22 22 23 23 23 25 26 27 27 27 27 28 28 27 28 31 33 34 33 31 30 30 30 31 32 32 31 32 35 37 37 38 43 49 51 49 45 43 42 39 36 34 34 35 34 33 32 31 30 30 28 27 26 28 30 31 30 30 30 31 32 34 33 31 29 27 26 26 28 30 31 32 32 33 33 34 35 37 39 40 42 42
19 20 20 21 21 21 21 21 22 23 25 26 26 26 27 28 29 28 27 27 29 32 33 33 30 29 29 29 29 30 30 30 31 33 34 35 35 37 42 48 49 47 45 43 40 37 35 35 36 34 32 31 31 31 30 28 25 23 22 22 22 21 20 21 24 28 32 33 31 27 26 27 29 31 32 33 34 35 35 36 36 36 35 34 34 36 37
19 19 20 20 20 20 20 20 21 23 25 26 26 27 28 28 28 28 27 26 26 28 31 32 30 28 28 28 27 27 28 29 30 31 32 33 33 34 37 42 46 48 47 45 41 38 36 37 36 33 30 30 30 30 29 27 25 23 20 18 17 17 18 20 22 24 27 28 26 23 24 26 27 27 27 27 27 28 29 30 31 32 31 31 31 33 35
18 19 19 19 18 19 19 20 21 23 26 27 27 28 28 28 28 27 26 26 25 26 28 30 29 27 27 28 27 26 26 27 28 29 30 31 31 33 35 38 42 46 46 44 40 38 37 38 36 32 29 28 29 28 28 27 26 25 23 21 20 20 20 22 22 21 21 21 20 21 22 24 25 25 26 26 27 29 31 33 34 34 34 34 35 35 36
18 18 17 17 18 19 19 20 22 24 26 27 27 27 27 27 27 26 25 25 24 24 26 28 28 27 26 26 26 25 25 25 26 27 27 28 29 32 35 36 39 42 43 42 39 38 39 39 36 32 29 28 27 27 28 28 27 27 26 26 25 23 22 22 21 20 20 20 19 20 21 22 24 26 27 29 31 33 34 35 36 36 36 36 36 36 36
17 17 16 17 17 18 19 20 23 25 26 27 26 26 27 27 27 26 25 24 23 23 25 27 28 28 26 25 25 24 24 24 24 24 24 25 28 32 35 36 35 36 38 38 37 37 38 37 34 30 28 28 27 27 28 28 28 29 29 29 29 29 28 26 25 24 24 23 23 23 23 24 26 28 29 31 32 33 33 34 34 34 35 36 36 36 36
15 16 16 16 17 17 19 21 24 25 26 26 26 26 27 28 27 25 24 23 22 23 25 27 28 27 27 26 25 25 24 23 22 22 22 25 29 32 34 36 35 33 33 34 34 34 33 31 29 28 29 29 30 30 29 29 30 31 31 31 31 31 31 30 29 27 26 25 24 24 25 27 29 31 33 35 35 36 36 36 36 37 38 38 38 38 38
15 15 15 16 16 17 20 23 25 25 26 26 26 27 27 27 26 24 22 21 21 22 24 27 27 27 27 26 25 26 25 23 21 20 21 25 30 31 32 33 34 33 32 32 31 31 29 28 27 28 30 31 32 33 34 34 33 33 32 32 32 31 30 29 27 25 24 23 23 24 27 30 33 35 36 37 37 37 38 39 39 41 41 41 40 40 40
15 15 15 16 16 18 21 24 25 25 25 26 26 26 26 25 25 24 22 21 21 22 25 27 27 26 27 26 24 25 25 23 22 20 20 23 29 32 31 31 31 32 32 31 31 30 30 29 29 30 32 33 33 35 37 37 37 36 35 34 33 31 28 27 26 26 28 29 30 31 33 34 36 37 37 38 39 39 39 40 41 42 43 43 43 42 42
15 14 15 16 17 19 22 25 25 25 25 26 25 25 25 24 23 23 22 21 21 23 25 27 26 27 27 25 22 22 23 23 22 21 21 22 26 29 31 31 30 31 32 32 31 32 31 30 30 31 32 33 34 35 37 38 37 36 34 32 30 28 27 27 29 31 33 34 35 36 36 36 36 37 38 39 39 40 40 40 40 41 42 43 43 43 42
14 14 14 15 17 21 24 25 24 24 25 25 24 23 23 23 22 21 21 20 21 23 25 26 27 27 27 24 22 22 23 22 20 20 20 22 24 26 28 29 29 30 30 29 29 31 31 31 32 33 33 33 34 35 36 36 34 32 29 26 25 26 27 29 31 32 34 35 37 38 39 39 39 39 39 39 39 38 38 38 38 39 40 41 42 42 43
14 13 13 16 20 24 25 25 24 24 23 23 22 22 22 22 22 20 20 20 20 23 25 26 27 28 28 24 21 22 23 22 20 20 21 22 23 24 24 25 26 26 26 26 26 27 29 31 33 34 33 33 33 33 33 32 30 28 27 26 27 28 30 31 33 34 35 37 38 39 39 39 39 38 38 38 37 37 36 36 36 37 38 39 41 42 42
14 13 14 19 23 25 26 25 24 23 22 21 21 21 21 21 21 20 19 20 21 23 26 26 27 29 30 25 22 22 23 22 22 21 21 21 21 21 21 22 23 23 24 24 25 25 26 27 28 28 28 27 27 27 27 26 26 25 26 27 29 31 32 32 32 33 33 34 34 34 34 34 34 35 35 35 36 36 36 36 36 36 37 38 39 40 41
14 14 17 22 25 25 25 25 24 23 22 21 20 20 19 19 20 20 20 20 21 24 26 26 27 29 29 27 24 24 24 23 22 22 21 21 21 21 21 22 23 23 23 23 23 22 23 24 23 23 22 21 21 20 20 21 22 23 25 27 28 29 29 30 30 30 30 31 31 32 32 32 33 33 33 33 33 34 34 34 35 36 37 38 39 40 41
15 16 19 24 25 25 25 25 24 23 22 22 20 20 19 18 18 18 18 19 21 23 25 26 27 29 28 25 23 24 25 24 24 23 22 22 22 23 24 24 24 23 24 24 22 21 22 23 22 21 20 19 19 18 19 20 22 24 25 26 27 28 28 28 29 29 30 30 30 31 31 31 32 32 32 32 32 32 33 34 35 36 38 40 41 43 44
16 16 19 24 25 24 25 25 24 23 23 23 22 22 21 21 20 19 19 18 19 23 25 26 27 29 28 24 22 24 26 25 25 24 24 24 24 25 25 25 24 24 25 25 24 23 23 22 21 21 21 20 19 19 20 21 23 24 25 25 25 26 26 27 27 28 28 29 29 30 30 30 30 31 31 32 32 33 34 36 37 39 41 43 45 47 48
17 17 21 24 24 24 25 26 26 25 25 25 24 24 24 23 22 22 21 18 16 20 23 24 26 28 26 22 22 25 27 26 26 25 26 26 26 25 24 23 24 24 25 25 24 23 22 20 20 20 19 18 19 20 20 21 23 23 23 24 24 24 25 25 26 26 27 28 28 29 29 29 30 31 32 34 35 36 38 39 40 41 42 44 45 47 49
18 20 22 23 24 25 27 28 28 28 27 27 26 25 25 22 20 22 23 20 17 19 22 24 27 28 25 21 22 24 26 25 25 25 26 27 26 23 21 22 23 23 24 24 23 21 19 18 18 18 18 19 19 20 20 21 22 22 22 23 23 24 24 25 25 25 26 27 28 29 30 31 32 33 34 35 35 36 36 36 37 39 41 43 45 47 49
20 22 23 23 25 27 28 28 28 28 28 27 27 27 26 23 20 20 20 19 18 20 22 24 27 28 24 21 21 23 23 24 24 24 24 23 22 22 21 22 23 23 23 22 21 19 18 18 19 20 21 21 20 20 20 21 22 22 22 22 23 23 24 24 25 25 26 28 29 30 32 32 32 32 31 31 30 30 32 34 36 39 40 42 43 43 43
22 23 23 24 26 27 28 28 29 29 28 27 26 26 25 24 23 21 19 19 20 21 21 23 26 26 24 22 21 21 22 23 24 23 21 20 20 22 23 24 24 23 21 19 18 18 19 21 22 21 21 21 20 20 21 21 21 21 21 22 22 23 24 25 25 26 27 28 29 29 29 28 28 27 26 26 27 29 31 33 35 35 34 34 33 33 33
24 24 25 25 26 27 28 28 29 29 27 25 24 24 22 21 21 20 19 20 22 22 21 22 24 24 23 23 22 21 22 23 22 21 20 20 21 23 25 25 25 23 20 18 18 19 20 21 21 19 19 19 19 20 20 19 19 20 21 21 22 23 24 25 25 25 25 24 23 23 22 22 21 21 22 23 25 27 28 28 27 27 26 26 26 25 25
26 26 27 26 27 28 29 28 28 28 25 23 23 22 20 19 20 21 19 19 21 22 22 23 22 22 22 23 22 21 22 23 23 22 22 22 23 24 24 23 21 20 19 18 18 19 19 19 18 17 17 18 18 18 18 18 19 20 21 21 22 23 23 23 23 22 20 19 17 17 17 17 17 18 19 21 22 22 22 21 20 20 20 20 20 18 17
27 27 28 28 29 30 30 28 26 26 24 23 22 21 18 19 22 22 20 19 20 21 22 22 22 22 23 23 22 20 20 22 23 23 23 23 22 22 22 20 18 18 17 17 18 18 17 17 17 17 17 17 17 18 18 19 19 20 20 21 22 22 21 20 19 18 17 16 15 15 14 14 14 15 16 17 17 17 16 16 16 16 17 16 16 15 13
26 27 29 29 30 30 28 26 25 25 23 21 20 19 18 20 22 21 20 19 20 20 20 20 20 20 20 21 21 20 21 21 22 22 22 21 20 19 19 19 18 17 17 17 17 17 17 18 18 18 18 18 18 19 19 19 19 19 20 20 20 19 18 17 16 15 14 14 15 14 13 12 12 13 13 14 14 14 14 14 14 14 14 14 13 13 12
Wind_Direction
279 276 274 273 271 269 267 264 262 261 262 261 260 259 259 258 257 255 253 252 250 249 250 250 248 247 244 242 240 237 234 227 218 215 210 206 206 203 191 187 190 186 182 187 193 198 196 202 213 226 237 245 242 234 232 220 214 220 218 215 213 215 219 213 205 209 210 207 213 211 206 215 214 211 216 218 220 225 228 232 239 242 238 234 236 241 242
277 274 272 271 269 268 266 263 261 259 260 261 259 258 257 255 254 253 250 248 246 245 245 246 245 244 240 238 237 234 231 225 217 215 211 209 210 205 194 193 194 189 191 196 193 200 211 202 205 216 227 232 224 208 215 217 216 219 218 214 210 210 214 211 201 201 205 203 204 203 201 207 211 212 218 224 227 227 225 226 232 237 236 234 235 241 245
274 272 271 269 268 267 265 263 260 258 258 259 258 257 257 253 250 251 249 246 245 244 243 243 243 242 238 235 234 232 228 222 216 213 211 210 213 209 198 195 198 194 197 200 192 198 221 209 198 205 217 221 221 217 215 225 233 232 225 219 215 211 210 209 202 198 200 202 203 203 200 203 210 216 222 229 232 229 227 230 235 241 240 234 233 239 246
272 271 269 269 268 266 264 262 260 257 256 258 257 256 255 252 248 248 249 247 246 244 243 243 243 242 239 236 233 231 227 222 217 214 210 210 214 213 203 196 202 205 201 200 197 203 220 210 194 196 205 209 213 221 223 226 235 242 237 225 218 213 209 207 205 203 207 212 213 211 207 206 212 218 224 229 231 231 233 234 238 245 247 238 232 236 244
272 270 269 268 267 265 264 262 260 257 255 256 256 254 253 252 248 247 248 247 245 242 239 239 239 241 241 239 236 233 228 221 218 214 210 209 213 217 211 202 204 211 205 200 201 207 212 208 195 190 191 195 198 209 220 221 221 227 240 238 221 214 209 204 203 209 215 219 220 222 222 218 217 221 225 229 228 226 227 230 234 242 248 243 236 236 243
271 270 268 267 266 264 262 261 259 256 253 253 255 254 251 250 247 244 244 245 244 241 237 236 237 237 239 238 237 235 229 221 216 213 211 209 211 216 217 209 208 215 209 200 203 209 206 207 203 192 184 189 192 197 212 216 214 212 219 233 227 216 210 203 203 211 215 213 215 220 226 230 232 229 227 228 228 224 223 227 234 240 246 249 241 238 249
271 269 267 266 264 262 260 259 257 255 252 251 253 253 251 249 246 242 240 240 242 240 235 233 234 234 235 235 234 233 230 223 216 211 210 210 210 214 218 216 214 219 215 203 203 209 205 204 208 198 182 184 192 193 201 211 212 208 207 218 227 220 213 207 204 209 208 203 210 215 218 228 236 232 223 220 223 224 225 231 238 242 248 251 240 237 251
270 268 266 264 262 260 258 257 256 254 251 249 250 251 250 248 244 240 237 236 238 239 234 229 229 231 232 232 231 229 227 225 218 212 210 210 209 212 216 217 217 220 218 207 202 206 206 202 207 203 185 179 189 191 192 202 209 207 204 210 218 218 216 211 206 206 204 201 207 211 212 220 228 229 225 221 221 225 231 236 239 242 250 251 240 241 252
268 266 264 262 260 258 256 255 254 254 252 249 249 249 248 247 243 238 235 233 234 236 234 229 226 226 227 228 228 226 224 224 220 214 211 210 209 210 213 215 218 220 220 212 204 204 207 202 203 204 193 180 184 186 187 196 205 207 204 203 208 212 214 211 208 207 207 205 207 209 210 214 220 225 224 222 225 231 234 237 236 238 247 250 246 247 252
266 264 262 260 258 257 255 254 253 254 253 250 248 247 246 245 242 237 234 232 231 232 232 230 225 223 223 225 225 223 221 222 221 216 212 210 209 210 213 215 218 221 223 218 208 204 207 204 199 201 195 184 184 185 186 196 203 207 207 203 204 207 208 207 208 210 212 211 210 211 212 212 213 217 217 216 221 227 229 231 232 234 239 243 245 247 248
265 263 261 259 257 256 255 254 253 254 253 251 249 247 245 243 240 237 232 228 228 230 229 228 225 221 220 222 222 220 219 221 222 217 212 210 209 209 212 215 218 222 225 221 214 208 207 204 200 200 196 188 187 186 186 195 199 203 208 207 204 204 205 207 208 210 216 217 214 212 214 216 216 215 215 216 218 219 222 226 228 230 232 231 229 231 233
264 262 260 258 257 256 255 254 253 253 253 252 249 247 245 241 238 236 232 226 225 228 226 225 224 220 218 221 220 219 219 219 221 218 213 210 210 209 212 215 218 222 224 223 220 214 209 205 203 203 198 192 190 187 185 192 195 196 204 208 204 201 204 210 210 209 214 218 217 215 217 219 220 219 218 221 222 220 219 223 228 231 232 230 228 228 229
265 263 261 259 258 256 255 254 253 253 252 251 249 247 244 241 236 234 232 226 223 226 225 223 223 220 217 219 219 218 219 219 220 218 213 212 212 212 213 215 217 220 221 223 225 222 216 210 207 205 201 195 192 189 186 191 195 193 199 207 207 203 205 212 213 210 211 214 216 218 219 220 222 222 220 222 226 225 224 227 231 233 234 237 240 240 239
266 264 262 260 258 256 254 253 251 250 249 247 246 245 242 239 235 231 230 226 222 223 223 222 222 219 216 218 218 218 218 219 219 217 214 213 214 214 215 217 219 220 218 221 227 228 224 217 212 209 204 198 196 194 192 194 193 188 190 199 204 204 206 211 214 213 213 214 215 217 219 221 223 223 223 223 225 226 229 233 237 239 242 245 247 248 249
267 265 263 260 257 254 252 250 248 246 245 242 241 241 239 236 233 229 228 225 221 221 222 221 221 219 216 217 219 219 218 217 217 216 214 214 214 214 215 216 218 219 217 218 223 227 227 223 216 212 208 203 202 199 197 199 195 187 187 191 192 194 200 206 210 212 213 214 216 218 220 222 224 224 224 225 225 226 229 232 236 240 244 248 250 252 255
267 265 262 259 256 252 249 247 244 242 240 237 236 236 235 232 230 228 226 224 221 220 221 221 220 218 216 216 218 219 218 217 217 215 213 213 213 214 214 215 215 216 216 217 220 224 226 225 220 215 210 207 206 203 201 202 201 196 195 194 191 191 197 201 206 211 212 210 212 217 220 222 225 225 225 224 225 226 226 228 235 239 240 245 249 251 253
265 264 261 258 254 249 246 243 241 238 236 234 233 232 231 229 227 226 225 223 221 220 221 219 218 217 216 216 217 218 217 218 218 216 212 209 211 214 214 214 216 218 217 218 221 223 225 225 222 218 216 214 211 208 205 203 204 208 206 200 198 199 202 206 208 211 214 214 213 217 221 223 224 225 225 224 225 226 224 226 234 237 238 243 249 249 250
263 262 260 256 252 247 242 240 238 236 233 232 231 230 228 226 225 224 223 222 220 220 221 218 217 217 217 216 217 217 217 218 219 219 215 211 211 213 214 214 219 222 222 221 222 223 225 226 224 221 221 222 218 214 211 207 208 215 217 211 204 200 201 210 213 212 212 214 215 218 221 223 223 224 226 226 225 227 228 229 232 234 237 245 250 251 252
261 259 257 254 250 245 240 237 235 234 232 231 230 230 227 225 223 222 222 221 219 220 221 217 215 216 216 216 217 218 218 218 218 219 218 216 214 214 215 216 218 221 222 221 221 222 222 223 224 222 222 224 223 221 220 216 216 221 224 221 213 202 196 202 210 212 210 209 209 213 217 220 221 222 225 226 226 229 232 234 234 233 236 245 250 252 254
259 257 255 252 248 243 238 235 233 232 231 230 230 230 227 224 223 221 221 220 218 219 221 216 213 214 215 215 217 218 218 218 218 218 219 218 217 217 218 218 218 220 222 221 220 220 220 221 223 224 225 226 225 224 224 225 225 225 222 220 218 209 201 200 204 208 209 208 206 208 213 218 220 221 223 225 227 231 234 237 239 239 241 246 251 254 256
256 254 252 248 245 241 236 234 232 231 230 229 229 230 227 224 222 220 219 219 218 218 219 215 212 213 214 214 216 218 219 218 218 219 220 220 219 220 220 219 219 220 222 221 217 216 218 220 222 224 227 229 229 226 225 227 229 228 224 223 224 220 214 211 209 208 209 210 210 210 211 215 218 220 223 225 227 231 236 239 244 247 248 249 250 253 255
253 250 248 244 242 239 236 233 231 229 229 228 228 228 227 224 222 220 219 219 218 217 216 214 212 213 214 213 215 217 219 219 218 220 222 220 219 220 220 219 220 219 218 217 214 213 216 219 218 217 220 224 227 228 226 226 229 230 230 231 232 231 229 228 224 222 220 220 219 218 217 219 220 221 224 226 228 232 236 240 244 247 248 248 249 252 254
249 246 244 241 239 237 235 233 229 227 227 227 226 226 225 223 221 219 219 219 217 214 213 212 212 213 213 212 214 217 218 219 220 221 223 221 218 218 220 222 224 224 220 217 217 216 219 220 217 215 217 219 223 226 227 226 227 229 232 235 238 238 239 239 238 237 237 235 229 225 224 225 224 223 224 226 227 231 235 239 241 243 244 246 248 251 254
245 242 240 238 237 236 234 231 227 225 225 224 224 224 223 221 219 216 217 218 214 209 210 211 211 212 212 211 214 216 218 220 221 222 224 222 217 216 220 223 226 227 225 222 220 218 219 220 220 219 220 220 221 224 228 229 229 228 230 233 237 241 244 244 243 243 244 242 239 236 234 229 224 222 224 225 227 230 234 236 238 239 243 247 249 251 253
241 239 237 235 234 233 231 229 225 224 223 221 220 220 220 218 215 214 215 216 210 205 207 210 209 209 210 211 214 217 218 220 222 223 223 222 217 215 217 221 224 224 222 220 218 216 215 216 219 220 220 222 223 223 226 228 229 229 229 230 231 235 239 239 238 240 242 243 243 243 240 233 228 226 227 228 229 232 236 237 237 239 243 248 252 254 253
237 236 234 232 231 230 228 225 223 222 220 217 216 216 215 213 212 212 213 212 207 203 205 207 206 206 208 212 216 218 219 221 223 223 222 221 217 214 216 219 220 218 216 216 216 215 215 215 216 218 220 222 223 224 226 227 228 231 232 229 227 230 233 234 235 238 241 244 246 246 242 237 235 235 235 235 238 241 243 244 245 247 249 250 252 256 257
234 233 231 229 228 229 226 222 221 221 217 213 211 211 210 208 208 209 210 209 204 201 203 205 205 206 209 213 218 219 220 221 223 222 221 220 217 215 216 218 217 214 213 215 215 214 215 217 217 217 219 222 224 228 230 230 230 233 234 230 228 232 237 240 242 245 247 246 244 242 240 238 238 241 243 245 246 246 247 248 251 255 257 256 257 260 262
231 230 229 225 224 226 223 218 218 218 213 208 207 207 205 204 205 206 207 206 203 201 202 204 204 206 209 214 218 220 221 221 221 220 220 220 218 216 216 217 216 214 214 216 216 214 215 219 221 219 220 222 224 228 231 233 235 237 238 237 237 239 242 245 247 248 247 242 237 234 236 237 241 248 252 252 249 249 251 254 256 258 260 260 261 263 264
228 227 225 223 222 223 219 215 215 214 208 204 203 202 200 200 202 202 202 203 202 202 203 204 204 206 210 213 216 219 220 219 218 217 218 219 218 217 216 216 216 215 215 217 217 215 216 220 222 223 223 225 226 228 231 234 239 242 243 244 246 246 246 245 242 237 233 230 229 231 235 240 247 254 256 256 256 257 261 263 264 264 265 264 262 261 262
223 223 221 220 220 218 213 212 212 209 202 199 199 197 196 198 199 199 199 201 202 202 203 204 205 207 210 212 215 218 218 215 214 214 214 215 217 217 216 215 215 215 216 217 217 216 217 221 223 223 225 227 228 230 233 235 238 242 242 242 243 242 240 237 232 227 224 220 221 226 233 238 246 252 256 259 262 263 264 265 265 266 267 265 261 260 261
219 219 218 217 215 211 207 208 207 202 197 195 194 194 194 196 197 197 198 199 200 201 203 204 204 206 209 212 214 216 215 213 211 211 210 211 213 214 213 212 213 215 216 217 217 215 216 220 222 222 224 228 231 234 237 237 238 241 241 239 238 240 238 231 224 220 220 220 223 231 237 240 245 250 254 258 260 260 260 261 261 260 260 260 260 262 265
214 215 213 211 208 204 203 204 201 195 191 191 191 191 192 193 194 195 196 198 198 198 199 201 201 203 206 209 212 214 213 211 209 208 208 208 209 211 209 207 209 212 214 215 215 214 215 219 220 219 221 227 232 235 238 239 238 238 238 240 243 243 236 228 222 221 226 234 243 250 252 251 251 253 254 256 258 259 261 263 263 262 262 263 263 264 267
209 209 207 205 202 200 201 200 195 189 187 187 188 188 190 191 191 192 193 195 196 196 197 197 197 199 202 205 207 210 211 208 206 206 206 205 204 203 202 201 202 206 208 209 210 211 214 218 218 215 217 223 228 232 236 237 238 237 235 234 235 234 228 226 230 237 243 248 253 256 258 258 258 258 257 255 255 257 259 261 263 263 264 265 265 265 266
202 201 200 199 197 198 199 195 188 184 184 184 184 185 187 189 189 189 190 192 192 192 193 193 194 196 198 199 201 204 207 205 202 202 203 201 197 195 195 195 197 199 201 203 205 207 212 216 215 212 213 218 224 229 233 236 238 239 237 234 233 234 237 240 245 250 254 257 262 266 268 267 265 264 261 259 257 256 256 257 257 258 260 262 264 265 266
194 194 195 194 193 194 193 187 181 180 181 181 181 183 185 186 187 187 188 190 189 189 190 190 191 192 194 195 197 200 201 201 200 197 194 192 190 189 190 193 194 192 192 195 199 203 207 211 211 207 207 211 217 223 228 233 237 239 239 237 237 239 243 248 253 259 267 273 277 278 277 275 272 268 266 265 264 263 262 262 261 260 262 264 265 267 269
186 189 190 188 188 188 185 178 175 176 176 177 179 182 183 183 183 184 185 187 187 187 187 187 188 190 191 193 195 197 196 195 197 195 187 184 184 185 187 190 191 189 187 189 192 196 200 202 203 202 203 207 214 220 225 230 235 239 240 242 243 244 248 253 260 267 272 273 272 271 271 272 271 270 269 269 268 268 268 268 268 267 268 270 271 272 274
182 186 186 183 182 181 176 172 171 172 173 174 177 180 181 180 179 179 181 182 183 185 185 184 183 186 188 190 193 195 193 191 192 191 184 179 180 183 184 185 187 187 187 187 189 193 196 197 198 200 202 205 211 218 223 227 231 237 242 247 251 254 256 259 261 262 262 261 261 262 264 267 269 270 272 272 272 272 271 271 272 273 274 275 276 277 277
178 180 179 178 177 174 170 167 167 168 170 173 175 176 176 176 176 177 178 179 180 182 183 180 179 182 184 183 184 188 191 191 192 189 182 177 176 179 181 183 183 184 184 185 188 194 198 200 202 207 209 209 211 217 223 226 228 233 239 246 251 256 257 257 255 255 256 258 260 262 264 265 267 268 269 271 272 272 273 273 274 275 276 277 278 277 276
173 173 171 172 172 169 165 163 164 166 168 171 172 172 172 173 174 175 176 177 179 181 180 178 179 180 179 174 174 179 184 187 189 187 184 180 177 176 178 181 182 183 182 181 185 193 197 200 203 208 211 212 213 216 220 223 226 229 234 239 243 247 250 251 253 255 258 260 262 264 264 265 266 266 267 268 269 270 270 270 270 271 272 273 274 274 275
166 162 161 163 165 163 161 160 162 164 166 167 168 169 169 170 171 173 174 175 176 178 178 178 178 179 175 170 169 174 177 180 183 185 186 186 182 179 179 178 178 181 183 182 186 193 197 200 204 208 210 211 214 217 219 222 225 228 231 235 239 243 246 250 253 255 258 260 262 263 264 264 265 266 267 268 268 268 269 268 268 268 268 269 270 271 273
156 151 153 158 159 158 158 158 158 160 162 163 164 166 166 166 167 169 172 173 174 176 177 177 178 177 174 170 168 171 173 176 180 182 183 186 185 183 182 181 179 179 183 187 191 196 199 200 204 207 207 208 212 216 218 221 223 226 229 233 236 240 244 247 250 252 255 258 260 262 263 264 264 265 266 267 268 268 269 269 269 269 269 269 269 270 270
147 145 150 157 158 157 155 155 155 156 158 158 158 158 160 162 165 168 170 172 173 174 174 174 176 177 174 171 170 172 171 173 178 178 176 179 181 181 184 186 183 181 184 190 194 199 202 205 207 209 208 207 208 211 215 218 220 223 226 230 234 238 242 246 250 253 256 258 260 262 264 265 266 267 267 267 268 269 270 271 271 272 272 272 272 271 271
143 144 150 157 159 156 153 152 153 153 152 151 150 150 152 154 157 160 163 166 169 171 172 172 173 173 171 168 170 172 172 174 178 176 170 170 175 180 184 187 185 183 185 190 193 198 204 208 209 211 212 212 212 214 217 222 225 228 230 232 235 239 243 247 251 255 258 260 262 264 266 267 268 269 270 270 271 271 272 272 272 273 273 273 273 273 273
135 139 151 157 158 155 151 150 149 148 147 146 146 146 147 146 147 150 152 156 165 171 172 171 170 170 168 165 166 169 172 176 179 176 170 170 177 183 185 184 183 185 189 192 194 199 205 207 208 212 215 216 215 216 219 223 228 232 235 237 239 242 244 247 251 255 258 261 264 265 266 267 268 270 271 272 272 272 273 274 275 275 276 276 277 276 276
130 140 151 156 156 153 150 147 145 145 146 146 146 147 147 145 145 146 144 144 158 170 170 168 168 169 169 165 162 166 172 176 178 177 176 178 182 185 184 180 181 186 191 193 196 201 205 206 207 210 214 215 215 216 217 220 224 230 235 239 241 244 246 249 251 255 258 261 263 265 267 268 269 270 271 273 274 276 277 279 280 281 281 281 280 280 279
132 143 149 151 152 151 149 147 146 147 147 146 145 145 141 138 142 149 148 147 156 166 165 164 167 170 169 164 161 165 171 173 174 177 182 184 183 181 180 180 185 189 192 194 197 200 201 202 204 206 208 211 213 216 218 221 224 228 234 238 242 245 248 250 252 255 258 261 263 265 267 270 272 275 277 279 281 283 284 285 286 287 286 286 286 285 284
135 142 145 149 152 151 149 148 148 148 147 145 146 145 142 141 149 159 157 154 157 160 160 163 166 168 166 163 162 165 169 169 170 175 182 183 180 176 176 182 190 194 195 196 197 197 198 201 204 206 208 211 215 218 222 225 228 231 234 239 243 247 251 254 256 259 261 264 267 270 273 276 279 282 284 285 286 287 288 289 289 290 290 290 290 290 290
135 139 143 149 151 150 148 148 147 146 145 145 145 147 147 148 152 155 153 154 158 158 158 162 165 165 163 163 163 164 167 167 167 170 173 174 175 178 180 186 192 196 196 194 193 194 199 204 207 209 213 216 218 221 224 227 230 233 237 241 245 249 253 257 261 265 269 272 275 277 278 280 281 282 282 284 285 287 288 290 290 291 292 292 293 294 295
133 137 141 145 147 147 146 147 147 147 146 145 145 146 148 151 155 155 153 156 161 160 158 160 163 164 163 162 162 165 167 167 165 164 166 168 174 180 185 189 192 194 193 193 193 195 199 204 208 212 217 220 223 225 228 231 233 237 241 245 249 254 258 263 269 273 276 277 276 276 276 275 276 278 280 283 286 288 290 291 292 293 293 292 293 300 308
132 136 139 141 142 142 142 143 147 149 148 146 147 148 148 152 160 163 160 158 161 162 160 161 163 165 165 164 162 164 167 168 166 167 169 173 176 180 184 188 190 191 191 194 195 196 198 204 210 215 220 224 227 231 233 236 239 243 248 252 257 262 267 271 275 277 276 273 272 273 274 274 277 280 283 285 287 290 293 296 297 297 295 295 299 310 322
131 134 136 138 139 139 139 142 147 150 148 147 150 152 151 154 162 164 162 160 162 163 163 163 164 165 167 167 166 165 168 170 171 173 176 178 180 181 183 184 186 188 192 196 198 199 203 210 216 220 223 227 231 235 238 242 247 253 257 261 265 269 272 273 272 270 267 267 271 275 278 280 282 285 286 288 290 294 299 304 305 304 303 304 309 316 323
125 130 133 135 137 138 140 143 147 148 148 150 152 153 153 155 159 161 161 161 163 163 163 164 165 166 167 169 170 171 173 174 175 177 180 183 184 185 187 188 189 192 196 199 202 205 211 217 221 224 227 230 235 240 245 251 257 262 266 269 272 274 273 268 263 260 263 269 276 281 285 287 287 287 289 292 294 298 304 309 312 313 313 313 315 320 322
Height
5729 5728 5728 5728 5728 5729 5729 5730 5731 5732 5732 5732 5733 5734 5736 5737 5737 5738 5740 5741 5742 5743 5745 5746 5747 5750 5753 5755 5757 5760 5764 5768 5769 5770 5771 5773 5775 5776 5777 5779 5781 5784 5786 5788 5790 5791 5792 5795 5799 5802 5805 5807 5811 5814 5817 5820 5822 5823 5825 5828 5832 5835 5837 5840 5843 5845 5849 5853 5856 5859 5861 5862 5863 5863 5864 5866 5868 5870 5872 5874 5874 5874 5874 5875 5876 5875 5875
5720 5720 5720 5720 5720 5720 5721 5722 5723 5725 5725 5725 5726 5727 5729 5731 5730 5730 5732 5733 5734 5736 5738 5740 5742 5745 5747 5748 5751 5754 5758 5762 5764 5766 5767 5769 5770 5771 5773 5775 5777 5778 5780 5781 5782 5785 5787 5791 5795 5799 5800 5804 5809 5812 5815 5817 5818 5820 5822 5825 5828 5829 5831 5835 5839 5841 5844 5846 5849 5852 5855 5857 5859 5860 5861 5863 5866 5867 5869 5870 5870 5870 5870 5872 5873 5873 5874
5711 5711 5711 5712 5712 5712 5713 5714 5715 5717 5718 5718 5719 5720 5721 5724 5724 5722 5723 5726 5727 5730 5734 5735 5737 5739 5740 5741 5744 5747 5751 5756 5759 5760 5761 5764 5766 5767 5769 5772 5772 5773 5775 5776 5777 5780 5782 5785 5791 5795 5797 5800 5805 5808 5812 5815 5816 5818 5821 5823 5825 5825 5827 5831 5833 5834 5836 5838 5840 5844 5849 5853 5856 5857 5859 5861 5863 5864 5865 5866 5867 5867 5868 5869 5869 5870 5872
5702 5703 5703 5704 5704 5704 5706 5706 5707 5709 5711 5711 5711 5713 5714 5716 5716 5715 5716 5719 5722 5726 5729 5730 5732 5733 5733 5736 5739 5742 5746 5751 5754 5755 5758 5760 5761 5763 5766 5768 5768 5769 5771 5772 5773 5775 5778 5781 5785 5790 5793 5796 5800 5804 5807 5810 5813 5816 5819 5820 5821 5822 5824 5828 5831 5832 5834 5837 5840 5844 5848 5851 5853 5855 5857 5859 5860 5861 5862 5862 5863 5865 5866 5866 5867 5868 5869
5694 5695 5695 5695 5696 5697 5698 5698 5699 5701 5703 5704 5704 5705 5707 5708 5709 5710 5711 5712 5715 5719 5722 5723 5725 5727 5728 5732 5735 5738 5742 5747 5749 5751 5754 5756 5757 5758 5759 5761 5763 5764 5765 5766 5767 5770 5774 5777 5779 5782 5786 5790 5794 5797 5800 5804 5809 5813 5816 5818 5818 5819 5820 5825 5829 5832 5835 5838 5841 5844 5847 5848 5850 5853 5854 5856 5857 5858 5858 5858 5860 5862 5863 5863 5864 5865 5866
5685 5686 5687 5687 5688 5688 5689 5690 5691 5692 5695 5696 5696 5697 5700 5701 5702 5705 5705 5706 5708 5711 5715 5716 5719 5721 5723 5726 5731 5734 5737 5741 5744 5746 5749 5751 5753 5752 5752 5755 5758 5759 5758 5758 5761 5764 5768 5772 5773 5774 5779 5785 5789 5792 5795 5799 5803 5807 5811 5814 5815 5816 5818 5822 5827 5831 5834 5836 5839 5842 5844 5846 5848 5850 5852 5853 5853 5854 5854 5855 5858 5859 5859 5860 5862 5863 5864
5677 5677 5678 5679 5679 5680 5681 5682 5683 5683 5686 5688 5688 5690 5692 5694 5696 5698 5699 5700 5701 5704 5708 5710 5712 5715 5717 5720 5724 5727 5731 5735 5737 5739 5742 5745 5748 5747 5748 5750 5752 5752 5750 5750 5753 5757 5761 5766 5769 5770 5774 5779 5785 5789 5793 5796 5799 5802 5806 5810 5813 5814 5816 5820 5825 5829 5832 5834 5836 5840 5842 5843 5844 5846 5848 5850 5851 5851 5852 5854 5855 5855 5856 5858 5860 5861 5862
5667 5668 5669 5670 5670 5671 5672 5673 5674 5675 5677 5679 5680 5682 5684 5686 5689 5691 5692 5694 5695 5696 5700 5704 5706 5709 5711 5714 5717 5720 5724 5729 5732 5733 5734 5738 5742 5743 5744 5745 5745 5744 5745 5747 5750 5753 5757 5762 5765 5769 5772 5776 5781 5786 5790 5793 5796 5799 5802 5805 5809 5812 5814 5818 5823 5826 5829 5832 5835 5837 5839 5840 5842 5843 5845 5847 5849 5850 5851 5851 5852 5852 5853 5855 5857 5857 5858
5658 5659 5660 5660 5661 5662 5663 5664 5665 5666 5668 5670 5672 5674 5676 5678 5681 5683 5685 5688 5689 5690 5693 5697 5700 5702 5705 5707 5710 5714 5718 5722 5725 5728 5730 5733 5735 5736 5737 5738 5739 5740 5742 5744 5746 5750 5754 5758 5762 5766 5770 5773 5778 5783 5787 5790 5793 5795 5797 5800 5803 5808 5811 5815 5819 5823 5825 5829 5831 5833 5835 5837 5838 5839 5841 5844 5846 5846 5847 5847 5848 5848 5849 5851 5852 5852 5854
5648 5649 5650 5651 5652 5653 5654 5656 5657 5657 5659 5661 5663 5666 5669 5670 5672 5675 5678 5681 5683 5684 5687 5691 5694 5696 5698 5701 5704 5708 5712 5715 5717 5721 5726 5729 5732 5733 5734 5734 5735 5736 5737 5739 5742 5746 5750 5755 5759 5763 5766 5769 5773 5778 5783 5786 5789 5793 5795 5796 5798 5802 5807 5811 5815 5818 5821 5824 5827 5830 5832 5834 5834 5834 5837 5839 5840 5841 5841 5842 5842 5843 5845 5847 5848 5850 5853
5638 5639 5640 5641 5643 5644 5645 5647 5648 5650 5651 5653 5655 5658 5661 5662 5664 5668 5671 5674 5676 5678 5682 5685 5687 5690 5692 5695 5698 5702 5705 5708 5711 5716 5722 5725 5727 5730 5729 5729 5729 5730 5731 5734 5739 5743 5748 5752 5756 5759 5762 5765 5768 5773 5778 5781 5784 5788 5791 5793 5794 5798 5803 5808 5811 5815 5817 5820 5824 5827 5830 5830 5829 5830 5832 5834 5834 5834 5835 5836 5837 5838 5839 5840 5843 5846 5849
5629 5630 5631 5632 5633 5635 5637 5638 5640 5642 5643 5645 5648 5650 5653 5655 5658 5661 5664 5668 5670 5672 5676 5679 5680 5684 5687 5689 5692 5696 5699 5703 5707 5713 5718 5720 5722 5723 5723 5724 5726 5727 5729 5733 5738 5742 5746 5751 5754 5757 5760 5762 5764 5769 5774 5777 5780 5783 5786 5788 5791 5796 5800 5804 5808 5812 5814 5817 5821 5824 5824 5824 5824 5825 5828 5829 5829 5829 5830 5830 5831 5832 5834 5836 5838 5841 5844
5620 5621 5622 5623 5625 5626 5628 5630 5632 5634 5636 5638 5640 5642 5645 5648 5651 5654 5657 5661 5664 5666 5670 5672 5674 5678 5682 5684 5687 5691 5694 5698 5703 5707 5711 5715 5717 5719 5720 5724 5727 5728 5731 5736 5738 5741 5746 5748 5750 5753 5756 5759 5762 5766 5770 5773 5776 5779 5781 5785 5789 5793 5796 5800 5803 5807 5810 5813 5816 5818 5819 5821 5821 5822 5823 5824 5825 5826 5826 5825 5826 5828 5830 5833 5835 5838 5841
5611 5612 5613 5615 5616 5618 5620 5622 5625 5627 5629 5631 5633 5635 5638 5641 5644 5648 5651 5655 5658 5660 5663 5665 5668 5673 5677 5679 5682 5686 5689 5694 5698 5702 5706 5710 5713 5716 5719 5722 5725 5728 5733 5736 5736 5739 5743 5744 5746 5750 5754 5758 5761 5764 5767 5770 5772 5774 5777 5781 5785 5787 5790 5793 5798 5801 5805 5809 5812 5813 5816 5819 5819 5819 5819 5820 5821 5823 5824 5824 5824 5825 5827 5829 5831 5833 5836
5603 5604 5606 5607 5609 5611 5613 5615 5617 5620 5622 5625 5626 5629 5632 5635 5638 5641 5645 5649 5652 5654 5656 5659 5663 5668 5672 5674 5677 5681 5685 5689 5693 5696 5700 5705 5710 5713 5716 5718 5720 5724 5729 5732 5733 5735 5738 5740 5744 5748 5753 5756 5758 5761 5765 5768 5769 5770 5772 5775 5779 5781 5783 5787 5792 5795 5799 5804 5807 5810 5813 5815 5815 5816 5817 5818 5819 5820 5822 5823 5822 5822 5824 5826 5827 5830 5832
5596 5597 5599 5600 5602 5604 5606 5608 5610 5613 5616 5618 5620 5622 5625 5629 5632 5635 5639 5642 5646 5649 5651 5655 5659 5662 5666 5670 5673 5677 5680 5684 5687 5691 5695 5701 5706 5709 5711 5713 5715 5719 5724 5728 5729 5730 5733 5736 5741 5745 5750 5753 5755 5758 5762 5765 5766 5767 5768 5770 5774 5777 5779 5782 5786 5790 5794 5798 5802 5805 5808 5810 5811 5812 5813 5815 5816 5816 5820 5821 5819 5818 5822 5823 5825 5828 5829
5589 5590 5592 5593 5595 5597 5599 5601 5604 5606 5609 5612 5614 5616 5619 5622 5626 5629 5633 5636 5641 5644 5646 5649 5654 5657 5662 5665 5668 5671 5675 5679 5682 5686 5691 5695 5700 5703 5706 5710 5712 5716 5721 5724 5726 5727 5729 5733 5738 5743 5747 5749 5751 5754 5757 5761 5763 5765 5766 5767 5770 5773 5776 5780 5783 5786 5789 5794 5797 5800 5803 5805 5806 5807 5808 5811 5812 5813 5817 5818 5814 5815 5819 5820 5821 5824 5826
5582 5584 5585 5587 5589 5591 5593 5595 5597 5600 5603 5606 5608 5610 5613 5617 5620 5623 5627 5631 5636 5639 5640 5644 5649 5653 5657 5660 5663 5667 5670 5674 5678 5682 5686 5690 5693 5697 5701 5705 5708 5711 5716 5720 5722 5724 5726 5730 5735 5740 5742 5744 5748 5750 5752 5756 5759 5759 5761 5763 5766 5769 5773 5777 5780 5781 5784 5787 5790 5793 5796 5798 5801 5803 5804 5806 5809 5811 5812 5811 5810 5813 5816 5816 5817 5820 5821
5576 5577 5579 5581 5583 5585 5587 5589 5592 5594 5597 5600 5602 5604 5607 5611 5614 5618 5622 5626 5630 5634 5636 5639 5645 5648 5652 5655 5658 5661 5665 5669 5673 5678 5682 5685 5688 5691 5695 5700 5703 5706 5711 5714 5716 5718 5722 5726 5730 5734 5737 5740 5744 5745 5747 5750 5752 5754 5755 5758 5762 5765 5767 5771 5775 5777 5779 5781 5783 5786 5789 5791 5795 5798 5800 5803 5806 5805 5804 5804 5806 5810 5812 5812 5813 5815 5816
5570 5571 5573 5575 5578 5580 5582 5584 5586 5589 5592 5595 5597 5599 5602 5606 5610 5614 5617 5621 5626 5629 5630 5633 5639 5643 5646 5649 5652 5655 5660 5664 5668 5673 5677 5680 5683 5687 5691 5695 5698 5701 5705 5708 5710 5713 5718 5722 5725 5729 5732 5734 5737 5740 5743 5744 5746 5749 5751 5753 5757 5761 5763 5765 5769 5772 5775 5777 5778 5780 5782 5785 5790 5793 5795 5798 5800 5799 5798 5800 5802 5804 5807 5809 5810 5810 5811
5564 5566 5568 5570 5572 5574 5576 5579 5581 5584 5587 5590 5592 5594 5598 5602 5605 5609 5612 5617 5621 5623 5625 5629 5634 5638 5640 5643 5647 5650 5654 5659 5664 5668 5671 5675 5679 5683 5688 5692 5694 5697 5700 5702 5705 5710 5715 5718 5721 5724 5727 5729 5732 5736 5739 5740 5742 5745 5748 5749 5753 5757 5760 5763 5765 5768 5770 5772 5773 5774 5775 5779 5783 5787 5790 5793 5795 5794 5795 5796 5797 5799 5802 5805 5805 5806 5807
5559 5561 5563 5565 5567 5569 5571 5574 5576 5579 5582 5585 5588 5590 5593 5597 5601 5604 5608 5612 5616 5618 5620 5625 5629 5632 5635 5639 5643 5646 5650 5654 5659 5663 5667 5671 5675 5679 5684 5688 5690 5693 5696 5698 5702 5707 5711 5714 5717 5719 5722 5726 5728 5731 5734 5736 5738 5741 5744 5747 5750 5753 5756 5760 5762 5765 5767 5768 5769 5770 5773 5775 5779 5782 5785 5788 5790 5790 5791 5793 5794 5796 5798 5799 5800 5801 5801
5554 5556 5558 5560 5562 5564 5567 5569 5572 5575 5578 5580 5583 5586 5589 5593 5597 5601 5604 5607 5611 5614 5616 5620 5625 5628 5631 5634 5638 5642 5646 5650 5654 5658 5662 5667 5671 5675 5679 5683 5685 5689 5693 5696 5700 5703 5707 5710 5712 5714 5718 5722 5724 5726 5729 5731 5734 5737 5741 5745 5746 5748 5752 5755 5758 5760 5761 5763 5766 5769 5771 5773 5775 5778 5782 5784 5785 5786 5788 5790 5792 5793 5792 5793 5795 5795 5795
5549 5551 5553 5555 5558 5560 5563 5565 5568 5571 5574 5577 5580 5583 5586 5589 5593 5597 5600 5602 5606 5610 5613 5617 5620 5624 5628 5632 5636 5640 5644 5647 5651 5655 5659 5664 5668 5670 5674 5678 5682 5686 5691 5695 5698 5701 5704 5706 5708 5711 5714 5717 5720 5723 5725 5727 5731 5735 5739 5742 5744 5746 5748 5751 5753 5755 5756 5758 5761 5766 5769 5771 5773 5776 5778 5780 5781 5782 5783 5785 5787 5787 5787 5788 5789 5788 5788
5545 5547 5549 5551 5554 5556 5559 5561 5564 5567 5570 5573 5576 5579 5583 5586 5590 5593 5596 5599 5603 5607 5610 5614 5618 5623 5627 5632 5635 5638 5641 5644 5648 5652 5656 5660 5663 5665 5669 5674 5679 5684 5689 5693 5695 5698 5701 5703 5705 5708 5711 5713 5716 5720 5722 5724 5728 5731 5734 5739 5742 5744 5746 5748 5749 5751 5753 5753 5756 5762 5766 5769 5771 5773 5775 5776 5778 5778 5780 5781 5782 5782 5783 5783 5783 5782 5783
5541 5543 5545 5548 5550 5552 5555 5558 5561 5564 5567 5570 5573 5576 5580 5583 5587 5590 5593 5597 5601 5605 5608 5612 5617 5621 5625 5627 5629 5632 5636 5640 5644 5647 5652 5656 5658 5661 5665 5670 5676 5682 5687 5690 5693 5696 5698 5700 5703 5706 5708 5710 5713 5716 5718 5720 5723 5726 5729 5733 5736 5739 5741 5743 5744 5748 5751 5751 5754 5759 5763 5765 5767 5769 5771 5773 5775 5776 5777 5778 5779 5778 5778 5779 5779 5778 5778
5537 5539 5542 5544 5547 5549 5552 5555 5558 5561 5564 5567 5570 5574 5577 5581 5585 5588 5591 5595 5599 5603 5607 5611 5614 5618 5621 5623 5626 5629 5633 5637 5641 5644 5648 5651 5654 5657 5661 5666 5673 5679 5684 5687 5690 5694 5696 5698 5700 5702 5705 5707 5710 5712 5714 5717 5719 5721 5725 5728 5731 5734 5737 5739 5742 5747 5749 5750 5752 5755 5757 5760 5763 5765 5766 5768 5770 5771 5772 5773 5774 5774 5774 5774 5775 5774 5774
5534 5537 5539 5541 5544 5546 5549 5552 5555 5558 5561 5564 5568 5572 5576 5579 5583 5586 5590 5593 5597 5601 5604 5607 5611 5615 5618 5621 5623 5627 5630 5634 5638 5641 5644 5647 5650 5653 5657 5663 5670 5676 5680 5684 5687 5691 5694 5696 5697 5699 5702 5705 5706 5708 5711 5714 5717 5719 5723 5726 5729 5732 5735 5738 5741 5745 5746 5746 5748 5750 5752 5755 5759 5761 5762 5763 5764 5766 5766 5767 5768 5768 5768 5768 5769 5769 5768
5532 5534 5537 5539 5541 5544 5546 5550 5553 5556 5559 5562 5566 5570 5574 5577 5580 5584 5588 5591 5594 5598 5601 5605 5609 5613 5616 5619 5621 5624 5628 5631 5635 5638 5641 5644 5647 5649 5653 5659 5666 5672 5677 5680 5684 5689 5692 5693 5694 5698 5700 5702 5704 5706 5709 5712 5715 5718 5721 5723 5725 5728 5731 5733 5736 5738 5739 5740 5742 5744 5748 5752 5755 5757 5757 5758 5759 5760 5761 5761 5762 5762 5762 5763 5763 5763 5763
5529 5532 5534 5536 5539 5542 5545 5548 5551 5554 5557 5560 5564 5568 5572 5575 5578 5582 5586 5589 5592 5596 5600 5604 5608 5611 5613 5616 5619 5622 5626 5629 5632 5635 5638 5641 5644 5647 5650 5656 5662 5668 5673 5677 5681 5685 5688 5690 5692 5696 5698 5700 5702 5704 5707 5710 5713 5716 5719 5721 5722 5723 5725 5728 5731 5733 5735 5736 5737 5740 5744 5748 5751 5752 5753 5753 5754 5754 5755 5755 5756 5756 5757 5758 5758 5758 5758
5527 5530 5532 5535 5537 5540 5543 5546 5549 5552 5555 5559 5563 5566 5570 5573 5577 5580 5584 5587 5590 5594 5598 5602 5605 5608 5611 5614 5617 5620 5623 5627 5630 5633 5636 5639 5642 5644 5648 5653 5659 5664 5669 5674 5678 5682 5685 5687 5689 5693 5696 5698 5700 5702 5704 5708 5711 5714 5716 5718 5719 5720 5722 5725 5727 5730 5732 5734 5735 5737 5740 5742 5745 5747 5747 5748 5749 5749 5749 5750 5750 5751 5752 5753 5753 5753 5753
5526 5528 5531 5533 5536 5539 5542 5544 5547 5550 5554 5557 5561 5565 5568 5572 5576 5579 5583 5586 5589 5592 5596 5599 5603 5606 5609 5612 5615 5618 5621 5624 5628 5631 5634 5637 5639 5642 5646 5650 5655 5661 5666 5671 5675 5679 5682 5683 5687 5692 5694 5696 5697 5700 5702 5705 5708 5711 5713 5715 5717 5718 5720 5722 5724 5726 5728 5731 5732 5734 5735 5737 5739 5741 5742 5743 5744 5744 5744 5744 5745 5746 5747 5748 5748 5749 5749
5524 5527 5529 5532 5535 5537 5540 5543 5546 5549 5553 5556 5560 5564 5568 5571 5575 5578 5581 5584 5587 5591 5594 5597 5601 5604 5607 5611 5614 5617 5620 5623 5626 5629 5632 5634 5637 5640 5644 5648 5653 5657 5662 5667 5672 5676 5678 5680 5685 5690 5693 5694 5696 5697 5699 5701 5704 5707 5709 5712 5714 5716 5717 5719 5721 5723 5725 5727 5729 5731 5732 5734 5735 5736 5737 5738 5739 5739 5739 5739 5740 5741 5742 5743 5743 5745 5745
5524 5526 5529 5531 5534 5536 5539 5542 5545 5548 5552 5556 5559 5563 5566 5570 5573 5577 5580 5583 5586 5589 5592 5596 5600 5603 5606 5609 5612 5615 5618 5621 5624 5627 5630 5632 5635 5639 5643 5647 5651 5655 5659 5664 5669 5672 5675 5678 5683 5688 5691 5692 5694 5695 5696 5699 5701 5703 5705 5708 5711 5713 5714 5716 5718 5720 5722 5723 5725 5727 5728 5729 5730 5730 5731 5732 5732 5733 5734 5735 5736 5737 5738 5738 5739 5740 5741
5524 5526 5528 5531 5533 5536 5538 5541 5545 5548 5552 5555 5559 5562 5566 5569 5573 5576 5579 5582 5585 5588 5591 5595 5598 5602 5605 5608 5611 5613 5616 5619 5622 5625 5627 5630 5634 5637 5641 5645 5649 5653 5657 5661 5666 5669 5673 5676 5681 5684 5687 5688 5690 5693 5695 5697 5697 5697 5700 5703 5706 5708 5710 5712 5714 5716 5718 5719 5720 5721 5722 5723 5724 5725 5725 5726 5727 5728 5729 5730 5731 5732 5733 5734 5735 5735 5735
5524 5526 5528 5530 5533 5535 5538 5541 5545 5548 5552 5556 5559 5562 5565 5569 5573 5576 5579 5582 5584 5587 5590 5594 5597 5601 5604 5607 5610 5612 5615 5618 5620 5623 5626 5629 5632 5636 5640 5644 5647 5651 5655 5659 5663 5666 5670 5672 5675 5678 5681 5685 5688 5691 5693 5693 5692 5693 5695 5698 5701 5704 5707 5709 5712 5713 5715 5715 5716 5717 5717 5717 5718 5719 5719 5720 5721 5722 5722 5723 5724 5725 5726 5727 5728 5728 5729
5524 5526 5528 5531 5533 5536 5539 5542 5546 5549 5553 5556 5559 5562 5566 5569 5572 5576 5578 5581 5584 5586 5589 5593 5597 5601 5604 5607 5610 5612 5614 5617 5619 5622 5625 5628 5631 5635 5638 5642 5646 5649 5653 5657 5660 5663 5665 5666 5669 5673 5678 5682 5685 5687 5688 5688 5689 5690 5692 5695 5699 5702 5705 5708 5709 5710 5710 5711 5711 5712 5713 5714 5714 5714 5715 5715 5716 5716 5717 5717 5718 5718 5719 5719 5720 5721 5721
5524 5526 5529 5531 5534 5537 5540 5543 5547 5550 5553 5556 5560 5563 5566 5569 5572 5575 5578 5581 5583 5586 5589 5593 5597 5601 5603 5607 5610 5612 5615 5617 5619 5622 5624 5627 5630 5634 5637 5641 5644 5648 5651 5654 5657 5659 5660 5663 5668 5673 5677 5680 5682 5684 5685 5685 5687 5689 5692 5695 5698 5700 5702 5703 5704 5705 5705 5705 5706 5708 5709 5710 5710 5711 5711 5711 5711 5711 5712 5712 5712 5712 5713 5713 5713 5713 5713
5525 5527 5530 5532 5535 5538 5541 5545 5548 5551 5554 5557 5560 5564 5567 5570 5573 5576 5578 5581 5584 5586 5589 5593 5597 5600 5603 5606 5609 5611 5614 5618 5620 5623 5625 5627 5630 5633 5636 5640 5643 5646 5649 5652 5654 5655 5657 5662 5667 5671 5674 5677 5680 5682 5683 5685 5687 5690 5693 5695 5697 5697 5698 5698 5699 5700 5700 5701 5702 5703 5704 5704 5705 5706 5706 5707 5707 5707 5708 5708 5708 5708 5708 5707 5706 5706 5706
5526 5528 5530 5533 5536 5539 5542 5546 5549 5552 5555 5559 5562 5565 5568 5570 5573 5576 5579 5581 5584 5587 5590 5593 5597 5600 5604 5607 5609 5611 5614 5618 5620 5623 5625 5628 5630 5633 5636 5639 5642 5645 5648 5650 5652 5653 5657 5662 5666 5668 5672 5675 5678 5680 5683 5685 5687 5690 5692 5693 5694 5694 5694 5694 5695 5695 5696 5696 5697 5698 5699 5700 5700 5701 5701 5701 5702 5702 5703 5703 5703 5703 5703 5702 5701 5700 5700
5528 5530 5532 5534 5537 5540 5544 5547 5550 5553 5557 5560 5563 5566 5569 5571 5574 5577 5579 5582 5584 5587 5590 5593 5596 5600 5603 5606 5609 5611 5614 5618 5620 5623 5626 5629 5632 5634 5637 5639 5642 5645 5647 5649 5651 5653 5657 5661 5664 5667 5671 5674 5677 5679 5682 5684 5686 5687 5688 5689 5689 5689 5689 5690 5691 5691 5692 5692 5693 5694 5695 5695 5695 5696 5696 5697 5697 5697 5697 5697 5698 5698 5698 5697 5696 5696 5695
5529 5531 5533 5536 5539 5542 5545 5548 5552 5555 5558 5561 5564 5567 5570 5573 5575 5578 5580 5582 5584 5587 5590 5593 5597 5600 5603 5606 5608 5611 5614 5617 5620 5623 5626 5630 5633 5635 5638 5640 5642 5645 5647 5649 5651 5653 5657 5660 5662 5666 5669 5672 5675 5677 5679 5681 5682 5684 5684 5685 5685 5686 5686 5687 5687 5688 5688 5689 5690 5690 5690 5690 5691 5691 5692 5692 5692 5692 5692 5692 5692 5692 5691 5690 5690 5689 5689
5531 5533 5535 5538 5541 5544 5547 5550 5554 5557 5560 5563 5566 5569 5572 5575 5577 5580 5582 5584 5586 5588 5591 5594 5597 5601 5604 5607 5609 5611 5615 5618 5620 5623 5627 5630 5633 5635 5637 5639 5642 5645 5647 5649 5651 5653 5656 5658 5661 5664 5667 5670 5672 5674 5676 5678 5679 5679 5680 5681 5682 5683 5684 5684 5685 5685 5685 5686 5686 5686 5686 5686 5686 5686 5687 5687 5687 5687 5687 5687 5686 5686 5685 5684 5683 5682 5681
5533 5536 5537 5540 5543 5546 5549 5552 5555 5558 5561 5564 5567 5570 5572 5575 5578 5581 5583 5585 5587 5589 5592 5594 5598 5601 5604 5607 5609 5612 5615 5618 5621 5624 5627 5629 5631 5633 5636 5639 5642 5644 5646 5648 5651 5653 5655 5657 5660 5663 5665 5667 5670 5672 5674 5675 5675 5676 5677 5678 5680 5681 5682 5682 5682 5682 5682 5682 5682 5682 5682 5682 5682 5682 5682 5682 5682 5682 5682 5681 5681 5680 5679 5678 5677 5675 5674
5535 5537 5539 5542 5545 5548 5551 5554 5557 5560 5563 5565 5568 5571 5574 5576 5579 5581 5584 5586 5589 5591 5593 5596 5599 5602 5605 5607 5609 5612 5615 5618 5621 5624 5626 5628 5630 5633 5636 5639 5642 5643 5645 5648 5651 5653 5655 5657 5660 5662 5664 5666 5668 5670 5671 5672 5673 5674 5675 5676 5677 5678 5679 5679 5680 5680 5679 5679 5679 5679 5678 5678 5678 5678 5677 5677 5677 5676 5676 5675 5675 5673 5672 5671 5669 5668 5666
5537 5539 5541 5544 5547 5550 5553 5555 5558 5561 5564 5567 5570 5573 5576 5579 5581 5583 5585 5587 5590 5592 5594 5597 5599 5602 5605 5608 5610 5612 5615 5618 5621 5624 5626 5628 5630 5634 5637 5640 5641 5643 5645 5647 5650 5652 5655 5657 5659 5661 5663 5664 5665 5667 5668 5670 5671 5672 5673 5674 5675 5676 5676 5677 5677 5677 5676 5676 5676 5675 5674 5674 5674 5673 5673 5673 5672 5672 5671 5670 5669 5667 5666 5665 5663 5660 5659
5539 5541 5544 5547 5550 5552 5555 5558 5560 5563 5566 5568 5571 5574 5577 5580 5583 5585 5587 5588 5590 5593 5595 5597 5600 5602 5605 5608 5611 5613 5616 5619 5621 5624 5627 5629 5632 5635 5637 5639 5640 5642 5644 5647 5650 5653 5655 5656 5658 5659 5660 5662 5664 5665 5667 5668 5669 5670 5671 5672 5673 5673 5673 5673 5673 5673 5673 5673 5672 5671 5671 5670 5670 5670 5669 5669 5669 5668 5667 5666 5664 5663 5661 5659 5656 5654 5653
5542 5544 5547 5550 5553 5555 5558 5560 5563 5566 5568 5570 5573 5575 5578 5580 5583 5586 5588 5589 5591 5593 5596 5598 5601 5603 5606 5609 5612 5614 5617 5619 5622 5625 5627 5630 5632 5634 5636 5638 5639 5642 5644 5647 5650 5652 5654 5655 5656 5657 5659 5661 5662 5664 5665 5666 5667 5668 5669 5670 5670 5670 5670 5670 5670 5670 5670 5669 5669 5668 5667 5667 5667 5666 5666 5666 5665 5665 5663 5662 5660 5658 5656 5654 5652 5649 5647
5545 5547 5550 5553 5556 5558 5561 5564 5566 5569 5571 5573 5576 5578 5580 5582 5584 5587 5588 5590 5592 5594 5597 5599 5602 5605 5607 5610 5612 5615 5617 5620 5623 5625 5628 5630 5631 5633 5635 5637 5639 5641 5644 5647 5649 5651 5652 5654 5655 5656 5658 5659 5661 5662 5663 5664 5665 5666 5667 5667 5667 5667 5668 5667 5667 5667 5667 5667 5666 5665 5665 5664 5664 5663 5663 5662 5662 5660 5659 5657 5656 5654 5652 5649 5647 5645 5643
5548 5550 5553 5556 5559 5561 5564 5567 5570 5572 5575 5576 5578 5580 5582 5584 5586 5588 5589 5591 5594 5596 5598 5600 5603 5606 5608 5611 5613 5615 5618 5620 5622 5625 5627 5628 5630 5632 5634 5637 5640 5642 5645 5646 5648 5650 5651 5653 5654 5655 5657 5658 5659 5660 5661 5662 5663 5664 5664 5665 5665 5665 5665 5665 5664 5664 5664 5664 5663 5662 5661 5661 5660 5660 5659 5658 5657 5656 5655 5653 5652 5650 5648 5646 5644 5642 5639
5552 5554 5557 5559 5562 5565 5567 5570 5573 5575 5577 5578 5580 5581 5583 5585 5587 5589 5591 5594 5596 5598 5600 5602 5604 5607 5609 5612 5614 5616 5618 5620 5622 5624 5626 5628 5630 5633 5635 5638 5640 5642 5644 5646 5647 5649 5651 5652 5653 5654 5656 5657 5658 5659 5660 5660 5661 5662 5662 5662 5663 5663 5663 5662 5661 5661 5661 5660 5660 5659 5658 5657 5657 5656 5655 5654 5653 5652 5651 5650 5648 5646 5644 5643 5641 5639 5637
5557 5559 5561 5563 5565 5568 5571 5573 5575 5577 5579 5580 5582 5583 5585 5587 5589 5591 5593 5595 5598 5600 5603 5605 5607 5609 5611 5613 5615 5617 5618 5620 5623 5625 5627 5629 5632 5634 5636 5638 5640 5642 5643 5645 5647 5648 5649 5651 5652 5653 5655 5656 5657 5657 5658 5659 5659 5659 5660 5660 5660 5660 5659 5659 5658 5658 5657 5657 5656 5656 5655 5654 5653 5652 5652 5651 5650 5649 5648 5647 5645 5644 5642 5640 5639 5637 5635